Stations météo

réclame
Mon MeteoGroup
P11-B, Pays-Bas (6203): Température de l'air & dewpoint: 15.01.2018 13:00:00 - 21.01.2018 13:00:00 (CET)P11-B, Pays-Bas (6203): Vitesse du vent & gusts: 15.01.2018 13:00:00 - 21.01.2018 13:00:00 (CET)P11-B, Pays-Bas (6203): Direction du vent: 15.01.2018 13:00:00 - 21.01.2018 13:00:00 (CET)P11-B, Pays-Bas (6203): reduced air pressure: 15.01.2018 13:00:00 - 21.01.2018 13:00:00 (CET)P11-B, Pays-Bas (6203): visibility: 15.01.2018 13:00:00 - 21.01.2018 13:00:00 (CET)
Date & Time tt [°C] td [°C] ff [km/h] ff [knt] fx [km/h] fx [knt] dd ppp [hPa] vv [km]
21.01.2018 13:00:00 5,7 0,6 11 6 18 10 SW 1015,4 30
21.01.2018 12:00:00 5,8 0,2 9 5 14 8 - 1015,4 10
21.01.2018 11:00:00 5,9 0,8 15 8 22 12 - 1015,2 10
21.01.2018 10:00:00 5,9 1,3 11 6 18 10 W 1014,9 30
21.01.2018 09:00:00 5,1 0,8 18 10 25 14 NW 1014,6 13
21.01.2018 08:00:00 6,3 -1,1 14 8 32 18 WNW 1013,6 13
21.01.2018 07:00:00 6,2 -0,2 18 10 29 16 WNW 1012,7 35
21.01.2018 06:00:00 6,1 -0,4 18 10 32 18 WNW 1012,4 35
21.01.2018 05:00:00 5,8 0,7 26 14 36 19 NW 1011,4 10
21.01.2018 04:00:00 5,8 0,5 22 12 - - NW 1010,6 32
21.01.2018 03:00:00 5,8 0,3 25 14 43 23 NW 1009,8 38
21.01.2018 02:00:00 5,9 0,3 29 16 43 23 NW 1008,4 38
21.01.2018 01:00:00 6,0 0,8 29 16 43 23 NW 1007,0 29
21.01.2018 00:00:00 6,1 0,4 25 14 40 21 NW 1005,7 30
20.01.2018 23:00:00 6,2 1,4 29 16 40 21 NW 1004,7 24
20.01.2018 22:00:00 6,0 2,1 22 12 32 18 WNW 1003,9 24
20.01.2018 21:00:00 4,9 1,9 24 13 36 19 NW 1002,6 10
20.01.2018 20:00:00 5,7 2,1 11 6 18 10 WNW 1001,8 28
20.01.2018 19:00:00 4,7 1,8 11 6 18 10 NW 1001,2 18
20.01.2018 18:00:00 4,1 1,4 14 8 22 12 NW 1000,5 13
20.01.2018 17:00:00 4,4 1,9 7 4 18 10 NW 1000,0 10
20.01.2018 16:00:00 4,6 1,7 14 8 22 12 WSW 999,2 11
20.01.2018 15:00:00 5,1 2,0 18 10 29 16 SSW 998,9 38
20.01.2018 14:00:00 5,4 2,4 25 14 29 16 SSW 999,1 31
20.01.2018 13:00:00 5,9 2,8 22 12 29 16 S 999,8 19
20.01.2018 12:00:00 6,3 1,8 18 10 25 14 - 1001,2 10
20.01.2018 11:00:00 6,0 1,6 18 10 22 12 S 1001,8 23
20.01.2018 10:00:00 5,9 1,4 18 10 25 14 SSW 1002,3 25
20.01.2018 09:00:00 5,6 1,5 22 12 29 16 SW 1002,7 20
20.01.2018 08:00:00 5,6 1,4 22 12 32 18 SW 1003,4 20
20.01.2018 07:00:00 5,5 1,3 25 14 36 19 WSW 1003,7 24
20.01.2018 06:00:00 5,5 1,2 37 20 40 21 WSW 1004,3 10
20.01.2018 05:00:00 5,5 1,0 36 19 43 23 WSW 1004,9 23
20.01.2018 04:00:00 5,5 1,1 42 23 43 23 WSW 1005,4 10
20.01.2018 03:00:00 5,6 1,0 32 18 47 25 WSW 1006,1 23
20.01.2018 02:00:00 5,8 1,1 40 21 50 27 WSW 1006,3 24
20.01.2018 01:00:00 5,6 0,2 43 23 50 27 WSW 1006,0 25
20.01.2018 00:00:00 5,9 0,1 41 22 50 27 - 1006,1 10
19.01.2018 23:00:00 6,1 0,1 40 21 58 31 W 1006,0 24
19.01.2018 22:00:00 6,4 -0,5 43 23 58 31 W 1005,8 25
19.01.2018 21:00:00 6,4 0,8 36 19 50 27 WSW 1006,2 31
19.01.2018 20:00:00 6,4 0,2 46 25 50 27 WSW 1006,3 10
19.01.2018 19:00:00 6,0 -0,1 36 19 50 27 W 1006,4 27
19.01.2018 18:00:00 6,0 1,3 41 22 43 23 WSW 1006,4 10
19.01.2018 17:00:00 5,5 0,7 32 18 40 21 WSW 1006,7 26
19.01.2018 16:00:00 5,3 0,7 32 18 - - WSW 1006,5 27
19.01.2018 15:00:00 5,2 1,0 32 18 40 21 WSW 1006,6 22
19.01.2018 14:00:00 5,2 0,7 32 18 40 21 WSW 1007,0 24
19.01.2018 13:00:00 5,5 1,0 32 18 40 21 WSW 1007,0 27
19.01.2018 12:00:00 5,0 1,1 29 16 40 21 WSW 1006,8 27
19.01.2018 11:00:00 4,9 1,3 31 17 40 21 - 1006,8 10
19.01.2018 10:00:00 4,9 1,4 39 21 43 23 - 1006,6 10
19.01.2018 09:00:00 5,1 1,7 31 17 43 23 - 1006,0 10
19.01.2018 08:00:00 4,9 1,3 37 20 47 25 - 1005,4 10
19.01.2018 07:00:00 4,9 1,4 37 20 50 27 - 1005,0 10
19.01.2018 06:00:00 5,0 1,4 39 21 47 25 - 1004,4 10
19.01.2018 05:00:00 4,9 1,6 34 18 47 25 - 1004,0 10
19.01.2018 04:00:00 5,1 1,3 37 20 43 23 - 1003,5 10
19.01.2018 03:00:00 5,1 1,5 35 19 40 21 W 1003,3 10
19.01.2018 02:00:00 5,4 2,2 39 21 47 25 - 1002,7 10
19.01.2018 01:00:00 5,6 2,2 37 20 43 23 - 1002,0 10
19.01.2018 00:00:00 5,9 2,4 39 21 50 27 - 1001,5 10
18.01.2018 23:00:00 5,6 2,4 37 20 47 25 W 1001,1 10
18.01.2018 22:00:00 6,1 2,3 31 17 47 25 - 1000,8 10
18.01.2018 21:00:00 5,0 2,5 28 15 32 18 WNW 1001,0 10
18.01.2018 20:00:00 6,6 2,3 28 15 36 19 W 1000,5 10
18.01.2018 19:00:00 6,8 1,8 29 16 36 19 - 1000,4 10
18.01.2018 18:00:00 6,7 2,1 24 13 36 19 - 1000,3 10
18.01.2018 17:00:00 6,5 1,6 35 19 43 23 - 1000,4 10
18.01.2018 16:00:00 6,4 1,2 41 22 47 25 - 1000,0 10
18.01.2018 15:00:00 5,9 1,4 42 23 54 29 - 999,5 10
18.01.2018 14:00:00 5,7 1,6 48 26 58 31 - 998,7 10
18.01.2018 13:00:00 5,1 1,7 59 32 68 37 - 998,1 10
18.01.2018 12:00:00 5,6 2,8 63 34 76 41 - 996,3 10
18.01.2018 11:00:00 6,3 2,7 54 29 83 45 W 993,4 10
18.01.2018 10:00:00 5,8 2,4 78 42 126 68 W 988,8 7
18.01.2018 09:00:00 5,6 2,3 113 61 126 68 - 982,6 5
18.01.2018 08:00:00 9,7 4,0 96 52 112 60 WSW 981,3 10
18.01.2018 07:00:00 10,3 7,3 81 44 86 47 SW 982,7 10
18.01.2018 06:00:00 10,1 8,4 76 41 86 47 SW 983,3 9
18.01.2018 05:00:00 8,6 8,6 76 41 90 49 SSW 984,1 6
18.01.2018 04:00:00 5,5 5,3 76 41 79 43 S 988,3 2,7
18.01.2018 03:00:00 5,1 4,2 61 33 68 37 - 993,5 7
18.01.2018 02:00:00 5,5 1,9 54 29 54 29 SSW 997,4 10
18.01.2018 01:00:00 6,7 1,5 54 29 61 33 SW 1000,3 10
18.01.2018 00:00:00 7,0 2,1 57 31 61 33 WSW 1002,1 10
17.01.2018 23:00:00 6,8 1,3 63 34 65 35 WSW 1003,2 10
17.01.2018 22:00:00 6,8 1,1 59 32 65 35 WSW 1003,5 10
17.01.2018 21:00:00 6,6 0,9 55 30 68 37 W 1003,7 10
17.01.2018 20:00:00 6,8 0,4 61 33 72 39 - 1003,3 10
17.01.2018 19:00:00 6,8 0,8 67 36 72 39 W 1003,2 10
17.01.2018 18:00:00 6,8 0,2 65 35 72 39 - 1002,8 10
17.01.2018 17:00:00 6,8 0,7 59 32 68 37 - 1002,9 10
17.01.2018 16:00:00 6,7 0,3 59 32 - - - 1002,4 10
17.01.2018 15:00:00 6,3 0,2 65 35 79 43 - 1001,4 10
17.01.2018 14:00:00 6,5 -0,2 70 38 79 43 W 1000,2 10
17.01.2018 13:00:00 5,9 0,6 70 38 83 45 - 999,4 10
17.01.2018 12:00:00 5,7 0,5 72 39 83 45 - 998,4 10
17.01.2018 11:00:00 5,7 0,4 67 36 86 47 - 997,3 10
17.01.2018 10:00:00 5,0 0,4 65 35 83 45 - 996,7 10
17.01.2018 09:00:00 4,8 0,0 61 33 76 41 - 995,1 10
17.01.2018 08:00:00 4,5 -0,1 65 35 76 41 - 994,8 10
17.01.2018 07:00:00 4,3 -0,9 68 37 76 41 W 993,5 10
17.01.2018 06:00:00 4,4 -1,2 67 36 76 41 - 992,9 10
17.01.2018 05:00:00 4,3 -1,1 61 33 76 41 - 991,9 10
17.01.2018 04:00:00 4,4 -1,0 59 32 72 39 - 991,2 10
17.01.2018 03:00:00 4,6 -1,2 57 31 68 37 - 991,2 10
17.01.2018 02:00:00 4,8 -0,2 54 29 65 35 - 990,5 10
17.01.2018 01:00:00 5,0 -0,7 52 28 61 33 - 990,5 10
17.01.2018 00:00:00 5,4 -0,1 54 29 65 35 - 990,4 10
16.01.2018 23:00:00 5,9 0,2 54 29 65 35 - 990,1 10
16.01.2018 22:00:00 6,4 0,0 59 32 68 37 - 990,1 10
16.01.2018 21:00:00 6,4 -0,3 61 33 65 35 W 990,4 10
16.01.2018 20:00:00 6,7 0,1 55 30 65 35 WSW 991,0 10
16.01.2018 19:00:00 6,5 -0,5 54 29 61 33 WSW 991,1 10
16.01.2018 18:00:00 6,7 -1,2 57 31 61 33 W 991,2 10
16.01.2018 17:00:00 6,6 0,1 55 30 65 35 - 991,8 10
16.01.2018 16:00:00 6,7 0,3 50 27 61 33 - 991,9 10
16.01.2018 15:00:00 6,5 0,4 55 30 65 35 W 992,0 10
16.01.2018 14:00:00 6,1 0,1 50 27 65 35 WSW 991,5 21
16.01.2018 13:00:00 6,0 0,2 61 33 68 37 - 991,4 10
16.01.2018 12:00:00 5,9 0,6 57 31 68 37 - 991,5 10
16.01.2018 11:00:00 5,9 0,7 59 32 68 37 - 990,8 10
16.01.2018 10:00:00 6,1 1,0 54 29 72 39 - 990,2 10
16.01.2018 09:00:00 6,3 1,1 54 29 65 35 - 989,4 10
16.01.2018 08:00:00 5,6 1,5 67 36 79 43 - 988,7 10
16.01.2018 07:00:00 6,6 2,4 65 35 68 37 W 988,0 10
16.01.2018 06:00:00 7,3 3,2 63 34 65 35 WSW 988,1 10
16.01.2018 05:00:00 7,3 3,3 63 34 65 35 WSW 988,6 10
16.01.2018 04:00:00 7,4 3,5 59 32 68 37 WSW 988,7 10
16.01.2018 03:00:00 7,5 3,5 57 31 65 35 WSW 989,0 10
16.01.2018 02:00:00 7,4 3,7 57 31 61 33 WSW 990,0 10
16.01.2018 01:00:00 7,8 3,2 55 30 65 35 WSW 991,0 10
16.01.2018 00:00:00 7,8 3,5 63 34 65 35 WSW 990,7 10
15.01.2018 23:00:00 7,7 3,9 50 27 54 29 - 990,4 10
15.01.2018 22:00:00 7,8 4,5 42 23 58 31 W 989,8 10
15.01.2018 21:00:00 8,4 5,7 52 28 58 31 W 989,7 10
15.01.2018 20:00:00 8,8 7,1 44 24 54 29 - 988,8 10
15.01.2018 19:00:00 8,8 7,9 46 25 68 37 - 988,0 8
15.01.2018 18:00:00 9,3 8,8 55 30 68 37 SW 987,7 9
15.01.2018 17:00:00 7,3 7,0 68 37 83 45 - 986,9 5
15.01.2018 16:00:00 7,3 6,9 72 39 79 43 S 987,7 5
15.01.2018 15:00:00 7,0 6,6 74 40 86 47 S 990,1 5
15.01.2018 14:00:00 6,9 6,3 76 41 83 45 S 991,5 4,4
15.01.2018 13:00:00 6,3 5,8 76 41 90 49 S 992,5 4,8

tt = Température de l'air
td = dewpoint
ff = Vitesse du vent
fx = gusts
dd = Direction du vent
ppp = reduced air pressure
vv = visibility

stations d'obs. à proximité